Location: Palomar Mountain Lodge
(33.3110°N, 116.8495°W)
Time: 01:08:51
(UTC-07:00)

Lacrosse 5 - Pass Details

Date: 14 June 2018
Orbit: 714 x 724 km, 57.0° (Epoch: 20 August)

Event Time Altitude Azimuth Distance (km) Brightness Sun altitude
Exits shadow 23:41:06 41° 312° (NW) 1,024 2.9 -31.2°
Maximum altitude 23:41:10 41° 314° (NW) 1,024 2.9 -31.2°
Drops below altitude 10° 23:45:56 10° 25° (NNE) 2,194 4.9 -31.5°
Sets 23:48:27 0° 33° (NNE) 3,118 5.7 -31.6°
